Morristown, NJ

5:14 PM EDT on June 22, 2018 (GMT -0400)
Morristown Municipal

Weather History for KMMU - October, 2017

Change the Weather History Date:

Friday, October 27, 2017

  Actual Average Record
Temperature  
Mean Temperature 47 °F -  
Max Temperature 62 °F 60 °F 82 °F (1963)
Min Temperature 32 °F 37 °F 17 °F (1936)
Degree Days  
Heating Degree Days 18    
Moisture  
Dew Point 36 °F    
Average Humidity 82    
Maximum Humidity 100    
Minimum Humidity 34    
Precipitation  
Precipitation 0.00 in - - ()
Sea Level Pressure  
Sea Level Pressure 30.06 in    
Wind  
Wind Speed 1 mph (SW)    
Max Wind Speed 9 mph    
Max Gust Speed 15 mph    
Visibility 10 miles    
Events      
Averages and records for this station are not official NWS values.
T = Trace of Precipitation, MM = Missing Value Source: NWS Daily Summary

Daily Weather History Graph

Daily Weather History Graph

Search for Another Location

Airport or City:

Astronomy

Oct. 27, 2017 Rise Set
Actual Time 7:22 AM EDT 5:59 PM EDT
Civil Twilight 6:54 AM EDT 6:27 PM EDT
Nautical Twilight 6:22 AM EDT 7:00 PM EDT
Astronomical Twilight 5:50 AM EDT 7:31 PM EDT
Moon 1:56 PM EDT (10/27) No Moon Set
Length of Visible Light 11h 33m
Length of Day
10h 37m
Waxing Crescent, 48% of the Moon is Illuminated
Oct 27
Waxing Crescent
Oct 27
First Quarter
Nov 4
Full
Nov 10
Last Quarter
Nov 18
New

Hourly Weather History & Observations

Time (EDT) Temp. Windchill Dew Point Humidity Pressure Visibility Wind Dir Wind Speed Gust Speed Precip Events Conditions
3:15 AM 35.6 °F - 33.8 °F 93% 29.99 in 10.0 mi Calm Calm - N/A   Clear
3:35 AM 35.6 °F - 33.8 °F 93% 30.00 in 10.0 mi Calm Calm - N/A   Clear
3:55 AM 35.6 °F - 35.6 °F 100% 30.01 in 10.0 mi Calm Calm - N/A   Clear
4:15 AM 35.6 °F - 35.6 °F 100% 30.01 in 10.0 mi Calm Calm - N/A   Clear
4:35 AM 35.6 °F - 35.6 °F 100% 30.02 in 5.0 mi Calm Calm - N/A   Clear
4:55 AM 35.6 °F - 35.6 °F 100% 30.03 in 10.0 mi Calm Calm - N/A   Clear
5:15 AM 33.8 °F - 33.8 °F 100% 30.03 in 7.0 mi Calm Calm - N/A   Clear
5:35 AM 33.8 °F - 33.8 °F 100% 30.04 in 10.0 mi Calm Calm - N/A   Clear
5:55 AM 33.8 °F - 33.8 °F 100% 30.05 in 10.0 mi Calm Calm - N/A   Clear
6:15 AM 33.8 °F - 33.8 °F 100% 30.05 in 10.0 mi Calm Calm - N/A   Clear
6:35 AM 32.0 °F - 32.0 °F 100% 30.06 in 10.0 mi Calm Calm - N/A   Clear
6:45 AM 33.8 °F - 33.8 °F 100% 30.06 in 10.0 mi Calm Calm - N/A   Clear
7:45 AM 33.8 °F - 33.8 °F 100% 30.07 in 10.0 mi Calm Calm - N/A   Clear
8:45 AM 41.0 °F - 39.2 °F 93% 30.09 in 10.0 mi Calm Calm - N/A   Clear
9:45 AM 48.2 °F - 39.2 °F 71% 30.11 in 10.0 mi South 3.5 mph - N/A   Partly Cloudy
10:50 AM 53.6 °F - 41.0 °F 62% 30.10 in 10.0 mi South 3.5 mph - N/A   Partly Cloudy
11:45 AM 57.2 °F - 39.2 °F 51% 30.10 in 10.0 mi SW 3.5 mph - N/A   Partly Cloudy
12:45 PM 59.0 °F - 33.8 °F 39% 30.09 in 10.0 mi WNW 9.2 mph 15.0 mph N/A   Partly Cloudy
1:45 PM 60.8 °F - 35.6 °F 39% 30.08 in 10.0 mi WSW 9.2 mph - N/A   Partly Cloudy
2:50 PM 62.6 °F - 33.8 °F 34% 30.07 in 10.0 mi SW 8.1 mph - N/A   Scattered Clouds
3:50 PM 62.6 °F - 35.6 °F 37% 30.06 in 10.0 mi SW 9.2 mph - N/A   Scattered Clouds
4:45 PM 62.6 °F - 37.4 °F 39% 30.06 in 10.0 mi SW 6.9 mph - N/A   Partly Cloudy
5:50 PM 59.0 °F - 37.4 °F 45% 30.07 in 10.0 mi South 3.5 mph - N/A   Clear
6:45 PM 48.2 °F - 41.0 °F 76% 30.09 in 10.0 mi Calm Calm - N/A   Clear
7:50 PM 44.6 °F 43.1 °F 41.0 °F 87% 30.09 in 10.0 mi WNW 3.5 mph - N/A   Clear
9:45 PM 41.0 °F - 39.2 °F 93% 30.10 in 10.0 mi Calm Calm - N/A   Clear
10:35 PM 39.2 °F - 39.2 °F 100% 30.10 in 10.0 mi Calm Calm - N/A   Clear
10:55 PM 41.0 °F - 39.2 °F 93% 30.09 in 10.0 mi Calm Calm - N/A   Clear
11:15 PM 39.2 °F - 39.2 °F 100% 30.09 in 10.0 mi Calm Calm - N/A   Clear
11:35 PM 39.2 °F - 37.4 °F 93% 30.09 in 10.0 mi Calm Calm - N/A   Clear
11:55 PM 37.4 °F - 37.4 °F 100% 30.09 in 10.0 mi Calm Calm - N/A   Clear